Hourly Data Report for February 10, 2006

TORONTO CITY
ONTARIO

43°40'00.000" N
79°24'00.000" W
112.50 m
6158355
71508
XTO

Download Data

Hourly Data (February 2006)
Hourly Data Report for February 10, 2006
TIME
LST
Temp Definition
°C
Dew Point Definition
°C
Rel Hum Definition
%
Precip. Amount Definition
mm

Wind Dir Definition
10's deg

Wind Spd Definition
km/h
Visibility Definition
km
Stn Press Definition
kPa
Hmdx Definition


Wind Chill Definition


Weather Definition


00:00 -6.7 -10.9 72   LegendMM LegendMM   100.49     LegendNANA
01:00 -7.8 -11.6 74   LegendMM LegendMM   100.53     LegendNANA
02:00 -8.3 -12.0 75   LegendMM LegendMM   100.54     LegendNANA
03:00 -8.3 -13.4 67   LegendMM LegendMM   100.54     LegendNANA
04:00 -8.5 -15.0 59   LegendMM LegendMM   100.50     LegendNANA
05:00 -8.0 -13.8 63   LegendMM LegendMM   100.46     LegendNANA
06:00 -7.7 -12.8 67   LegendMM LegendMM   100.43     LegendNANA
07:00 -7.6 -11.0 77   LegendMM LegendMM   100.43     LegendNANA
08:00 -7.3 -9.7 83   LegendMM LegendMM   100.44     LegendNANA
09:00 -6.9 -8.7 87   LegendMM LegendMM   100.44     LegendNANA
10:00 -6.0 -7.2 91   LegendMM LegendMM   100.42     LegendNANA
11:00 -4.3 -6.9 82   LegendMM LegendMM   100.40     LegendNANA
12:00 -3.9 -6.9 80   LegendMM LegendMM   100.35     LegendNANA
13:00 -3.5 -6.2 82   LegendMM LegendMM   100.31     LegendNANA
14:00 -3.0 -5.9 80   LegendMM LegendMM   100.25     LegendNANA
15:00 -3.0 -5.6 82   LegendMM LegendMM   100.27     LegendNANA
16:00 -2.9 -4.9 86   LegendMM LegendMM   100.28     LegendNANA
17:00 -3.0 -4.8 87   LegendMM LegendMM   100.27     LegendNANA
18:00 -3.1 -4.8 88   LegendMM LegendMM   100.32     LegendNANA
19:00 -2.9 -4.8 87   LegendMM LegendMM   100.38     LegendNANA
20:00 -2.7 -4.4 88   LegendMM LegendMM   100.41     LegendNANA
21:00 -2.7 -4.0 91   LegendMM LegendMM   100.41     LegendNANA
22:00 -3.3 -4.7 90   LegendMM LegendMM   100.44     LegendNANA
23:00 -3.7 -5.3 89   LegendMM LegendMM   100.48     LegendNANA

Notes on Data Quality.

Legend

  • E = Estimated
  • M = Missing
  • NA = Not Available*
  • [empty] = Indicates an unobserved value
Date modified: